カタログに戻る

COSMOS 2251 DEB

運用中LEO
NORAD 47045·DEBRIS·🇷🇺 Russia

打ち上げ Jun 16, 1993 から Plesetsk Cosmodrome

Loading…

次のパス (今後24時間)

TLE

経年Source: Space-Track

元期: Sep 10, 2026, 02:19 UTC

1 47045U 93036BWZ 26253.09704366  .00000094  00000-0  38710-4 0  9990
2 47045  74.0606   9.2851 0028051  82.5580  92.7421 14.39019571117086

AllMySatでCOSMOS 2251 DEBをリアルタイム追跡

Download on the App Store